Hot Springs, VA

1:33 PM EDT on August 20, 2017 (GMT -0400)
Ingalls

Weather History for KHSP - November, 2012

Change the Weather History Date:

Thursday, November 29, 2012

  Actual Average Record
Temperature  
Mean Temperature 32 °F -  
Max Temperature 41 °F 41 °F 62 °F (1998)
Min Temperature 23 °F 28 °F 15 °F (2002)
Degree Days  
Heating Degree Days 33    
Moisture  
Dew Point 18 °F    
Average Humidity 61    
Maximum Humidity 93    
Minimum Humidity 33    
Precipitation  
Precipitation 0.00 in - - ()
Sea Level Pressure  
Sea Level Pressure 30.32 in    
Wind  
Wind Speed 12 mph (West)    
Max Wind Speed 18 mph    
Max Gust Speed -    
Visibility 10 miles    
Events      
Averages and records for this station are not official NWS values.
T = Trace of Precipitation, MM = Missing Value Source: NWS Daily Summary

Daily Weather History Graph

Daily Weather History Graph

Search for Another Location

Airport or City:

Trip Planner

Search our weather history database for the weather conditions in past years. The results will help you decide how hot, cold, wet, or windy it might be!

Date:

Astronomy

Nov. 29, 2012 Rise Set
Actual Time 7:14 AM EST 5:00 PM EST
Civil Twilight 6:46 AM EST 5:29 PM EST
Nautical Twilight 6:13 AM EST 6:01 PM EST
Astronomical Twilight 5:41 AM EST 6:33 PM EST
Moon 6:02 PM EST (11/29) 8:00 AM EST (11/29)
Length of Visible Light 10h 43m
Length of Day
9h 45m
Full, 99% of the Moon is Illuminated
Nov 29
Full
Dec 6
Last Quarter
Dec 13
New
Dec 20
First Quarter
Dec 28
Full

Hourly Weather History & Observations

Time (EST) Temp. Windchill Dew Point Humidity Pressure Visibility Wind Dir Wind Speed Gust Speed Precip Events Conditions
12:15 AM 24.8 °F 11.1 °F 21.2 °F 86% 30.29 in 10.0 mi West 18.4 mph - N/A   Clear
12:35 AM 24.8 °F 12.4 °F 21.2 °F 86% 30.29 in 10.0 mi WNW 15.0 mph - N/A   Clear
12:55 AM 24.8 °F 14.0 °F 21.2 °F 86% 30.29 in 10.0 mi West 11.5 mph - N/A   Clear
1:15 AM 24.8 °F 13.4 °F 21.2 °F 86% 30.29 in 10.0 mi West 12.7 mph - N/A   Clear
1:35 AM 24.8 °F 12.4 °F 21.2 °F 86% 30.29 in 10.0 mi WNW 15.0 mph - N/A   Clear
1:55 AM 24.8 °F 12.4 °F 21.2 °F 86% 30.30 in 10.0 mi West 15.0 mph - N/A   Clear
2:15 AM 24.8 °F 13.4 °F 21.2 °F 86% 30.30 in 10.0 mi West 12.7 mph - N/A   Clear
2:35 AM 24.8 °F 12.4 °F 21.2 °F 86% 30.30 in 10.0 mi West 15.0 mph - N/A   Clear
2:55 AM 24.8 °F 12.9 °F 21.2 °F 86% 30.30 in 10.0 mi West 13.8 mph - N/A   Clear
3:15 AM 23.0 °F 10.6 °F 21.2 °F 93% 30.29 in 10.0 mi West 13.8 mph - N/A   Clear
3:35 AM 23.0 °F 11.7 °F 21.2 °F 93% 30.29 in 10.0 mi West 11.5 mph - N/A   Clear
3:55 AM 23.0 °F 12.4 °F 21.2 °F 93% 30.29 in 10.0 mi West 10.4 mph - N/A   Clear
4:15 AM 23.0 °F 13.1 °F 19.4 °F 86% 30.29 in 10.0 mi West 9.2 mph - N/A   Clear
4:35 AM 23.0 °F 11.1 °F 21.2 °F 93% 30.30 in 10.0 mi West 12.7 mph - N/A   Clear
4:55 AM 23.0 °F 10.6 °F 21.2 °F 93% 30.30 in 10.0 mi West 13.8 mph - N/A   Clear
5:15 AM 23.0 °F 11.1 °F 21.2 °F 93% 30.30 in 10.0 mi West 12.7 mph - N/A   Clear
5:35 AM 23.0 °F 12.4 °F 19.4 °F 86% 30.30 in 10.0 mi West 10.4 mph - N/A   Clear
5:55 AM 23.0 °F 11.1 °F 19.4 °F 86% 30.30 in 10.0 mi West 12.7 mph - N/A   Clear
6:15 AM 23.0 °F 12.4 °F 19.4 °F 86% 30.30 in 10.0 mi West 10.4 mph - N/A   Clear
6:35 AM 23.0 °F 13.1 °F 19.4 °F 86% 30.31 in 10.0 mi West 9.2 mph - N/A   Clear
6:55 AM 23.0 °F 14.7 °F 19.4 °F 86% 30.31 in 10.0 mi West 6.9 mph - N/A   Clear
7:15 AM 23.0 °F 13.9 °F 19.4 °F 86% 30.31 in 10.0 mi West 8.1 mph - N/A   Clear
7:35 AM 23.0 °F 13.1 °F 19.4 °F 86% 30.32 in 10.0 mi West 9.2 mph - N/A   Clear
7:55 AM 24.8 °F 14.6 °F 19.4 °F 80% 30.33 in 10.0 mi West 10.4 mph - N/A   Clear
8:15 AM 24.8 °F 15.3 °F 21.2 °F 86% 30.33 in 10.0 mi West 9.2 mph - N/A   Clear
8:35 AM 26.6 °F 16.8 °F 21.2 °F 80% 30.34 in 10.0 mi West 10.4 mph - N/A   Clear
8:55 AM 26.6 °F 17.5 °F 21.2 °F 80% 30.35 in 10.0 mi West 9.2 mph - N/A   Clear
9:15 AM 26.6 °F 16.8 °F 21.2 °F 80% 30.36 in 10.0 mi West 10.4 mph - N/A   Clear
9:35 AM 28.4 °F 19.1 °F 21.2 °F 74% 30.36 in 10.0 mi West 10.4 mph - N/A   Clear
9:55 AM 28.4 °F 19.7 °F 21.2 °F 74% 30.37 in 10.0 mi West 9.2 mph - N/A   Clear
10:15 AM 30.2 °F 23.4 °F 21.2 °F 69% 30.37 in 10.0 mi West 6.9 mph - N/A   Clear
10:35 AM 30.2 °F 23.4 °F 21.2 °F 69% 30.37 in 10.0 mi West 6.9 mph - N/A   Clear
10:55 AM 32.0 °F 24.8 °F 21.2 °F 64% 30.37 in 10.0 mi West 8.1 mph - N/A   Clear
11:36 AM 33.8 °F 29.6 °F 19.4 °F 56% 30.36 in 10.0 mi West 4.6 mph - N/A   Clear
11:55 AM 35.6 °F 29.9 °F 15.8 °F 44% 30.35 in 10.0 mi West 6.9 mph - N/A   Clear
12:15 PM 35.6 °F 31.7 °F 17.6 °F 48% 30.34 in 10.0 mi West 4.6 mph - N/A   Clear
12:35 PM 37.4 °F 32.1 °F 17.6 °F 45% 30.34 in 10.0 mi West 6.9 mph - N/A   Clear
12:55 PM 37.4 °F 31.4 °F 17.6 °F 45% 30.33 in 10.0 mi WSW 8.1 mph - N/A   Clear
12:57 PM 37.4 °F 31.4 °F 17.6 °F 45% 30.33 in 10.0 mi West 8.1 mph - N/A   Clear
1:15 PM 37.4 °F 31.4 °F 17.6 °F 45% 30.32 in 10.0 mi West 8.1 mph - N/A   Clear
1:35 PM 39.2 °F 33.6 °F 15.8 °F 39% 30.32 in 10.0 mi WSW 8.1 mph - N/A   Clear
1:55 PM 39.2 °F 33.0 °F 15.8 °F 39% 30.31 in 10.0 mi West 9.2 mph - N/A   Clear
2:15 PM 39.2 °F 34.2 °F 15.8 °F 39% 30.31 in 10.0 mi West 6.9 mph - N/A   Clear
2:35 PM 41.0 °F 36.4 °F 17.6 °F 39% 30.30 in 10.0 mi West 6.9 mph - N/A   Clear
2:55 PM 39.2 °F 34.2 °F 17.6 °F 42% 30.30 in 10.0 mi WSW 6.9 mph - N/A   Clear
3:15 PM 41.0 °F 35.8 °F 15.8 °F 36% 30.31 in 10.0 mi West 8.1 mph - N/A   Clear
3:35 PM 39.2 °F 32.5 °F 17.6 °F 42% 30.31 in 10.0 mi West 10.4 mph - N/A   Clear
3:55 PM 39.2 °F 33.0 °F 15.8 °F 39% 30.31 in 10.0 mi West 9.2 mph - N/A   Clear
4:15 PM 39.2 °F 33.6 °F 15.8 °F 39% 30.31 in 10.0 mi WSW 8.1 mph - N/A   Clear
4:35 PM 39.2 °F 33.0 °F 12.2 °F 33% 30.30 in 10.0 mi WSW 9.2 mph - N/A   Clear
5:55 PM 33.8 °F 26.4 °F 12.2 °F 41% 30.31 in 10.0 mi WSW 9.2 mph - N/A   Clear
6:15 PM 33.8 °F 25.8 °F 12.2 °F 41% 30.31 in 10.0 mi WSW 10.4 mph - N/A   Clear
6:35 PM 33.8 °F 25.8 °F 14.0 °F 44% 30.31 in 10.0 mi WSW 10.4 mph - N/A   Clear
6:55 PM 35.6 °F 27.1 °F 12.2 °F 38% 30.31 in 10.0 mi WSW 12.7 mph - N/A   Clear
7:15 PM 35.6 °F 28.0 °F 12.2 °F 38% 30.31 in 10.0 mi WSW 10.4 mph - N/A   Clear
7:35 PM 35.6 °F 28.6 °F 10.4 °F 35% 30.32 in 10.0 mi SW 9.2 mph - N/A   Clear
7:55 PM 35.6 °F 28.6 °F 10.4 °F 35% 30.32 in 10.0 mi SW 9.2 mph - N/A   Clear
8:15 PM 37.4 °F 30.8 °F 10.4 °F 33% 30.32 in 10.0 mi SW 9.2 mph - N/A   Clear
8:35 PM 37.4 °F 30.8 °F 10.4 °F 33% 30.32 in 10.0 mi WSW 9.2 mph - N/A   Clear
8:55 PM 37.4 °F 30.8 °F 10.4 °F 33% 30.32 in 10.0 mi WSW 9.2 mph - N/A   Clear
9:15 PM 35.6 °F 28.6 °F 10.4 °F 35% 30.32 in 10.0 mi WSW 9.2 mph - N/A   Clear
9:35 PM 33.8 °F 26.4 °F 12.2 °F 41% 30.32 in 10.0 mi WSW 9.2 mph - N/A   Clear
9:55 PM 33.8 °F 25.8 °F 12.2 °F 41% 30.32 in 10.0 mi WSW 10.4 mph - N/A   Clear
10:15 PM 35.6 °F 27.5 °F 15.8 °F 44% 30.32 in 10.0 mi WSW 11.5 mph - N/A   Clear
10:35 PM 37.4 °F 29.8 °F 15.8 °F 41% 30.31 in 10.0 mi WSW 11.5 mph - N/A   Clear
10:55 PM 35.6 °F 27.1 °F 15.8 °F 44% 30.31 in 10.0 mi WSW 12.7 mph - N/A   Clear
11:15 PM 37.4 °F 28.5 °F 15.8 °F 41% 30.31 in 10.0 mi WSW 15.0 mph - N/A   Clear
11:35 PM 39.2 °F 30.8 °F 15.8 °F 39% 30.30 in 10.0 mi WSW 15.0 mph - N/A   Clear
11:55 PM 37.4 °F 28.2 °F 15.8 °F 41% 30.30 in 10.0 mi WSW 16.1 mph - N/A   Clear